Regional Weather Roundup
Issued by NWS

Home | Current Version | Previous Version | Text Only | Print | Product List | Glossary Off
Versions: 1 2 3 4 5 6 7 8 9 10 11 12 13 14 15 16 17 18 19 20 21 22 23 24 25 26 27 28 29 30 31 32 33 34 35 36 37 38 39 40 41 42 43 44 45 46 47 48 49 50

000
ASUS43 KDTX 292101
RWRMI
MICHIGAN HOURLY REGIONAL WEATHER ROUNDUP
NATIONAL WEATHER SERVICE DETROIT/PONTIAC MI
500 PM EDT SAT AUG 29 2015

NOTE: "FAIR" INDICATES FEW OR NO CLOUDS BELOW 12,000 FEET WITH NO
SIGNIFICANT WEATHER AND/OR OBSTRUCTION TO VISIBILITY.

MIZ047>049-052>055-059>063-066>070-074>076-081>083-292200-
SOUTHEAST LOWER MICHIGAN

CITY           SKY/WX    TMP DP  RH WIND       PRES   REMARKS
ADRIAN         LGT RAIN  76  65  68 CALM      30.08S
ALMA           LGT RAIN  66  64  96 CALM      30.09S
ANN ARBOR      PTSUNNY   75  63  66 E5        30.07S
BAD AXE        CLOUDY    67  62  86 SE3       30.10F
CARO           CLOUDY    68  64  89 E3        30.08F
DETROIT CITY   CLOUDY    74  62  66 E6        30.07F
DETROIT        CLOUDY    74  60  61 E5        30.07F
FLINT          LGT RAIN  73  64  73 SE3       30.08F
GROSSE ILE     FAIR      73  64  73 E3        30.06F
HILLSDALE      PTSUNNY   73  68  85 CALM      30.09R
HOWELL         LGT RAIN  70  65  85 CALM      30.08F

CITY           SKY/WX    TMP DP  RH WIND       PRES   REMARKS
JACKSON        PTSUNNY   71  66  84 SE7       30.06F
LAMBERTVILLE   DRIZZLE   76  66  71 CALM      30.07S
LANSING        CLOUDY    69  64  84 E5        30.08F
LAPEER         CLOUDY    69  64  82 E3        30.09S
MASON          CLOUDY    70  63  77 CALM      30.07F
MONROE         LGT RAIN  73  65  75 CALM      30.06S
MT. CLEMENS    CLOUDY    72  62  70 E5        30.06F
PONTIAC        CLOUDY    70  66  87 E5        30.08S
PORT HOPE        N/A     67  63  87 SE8       30.08F
PORT HURON     CLOUDY    72  66  83 E5        30.09F
TRI CITIES     LGT RAIN  69  63  81 S3        30.10R
MIDLAND        CLOUDY    68  62  79 CALM      30.08S
TROY           CLOUDY    73  64  75 NE3       30.09F
SAGINAW HB     CLOUDY    68  64  88 SE3       30.08S
$$
MIZ043>046-050>051-056>058-064>065-071>073-077>080-292200-
SOUTHWEST LOWER MICHIGAN

CITY           SKY/WX    TMP DP  RH WIND       PRES   REMARKS
BATTLE CREEK   CLOUDY    70  65  84 CALM      30.07F
BENTON HARBOR  CLOUDY    70  66  87 E8        30.03F
BIG RAPIDS     CLOUDY    65  63  91 CALM      30.08S
COLDWATER      PTSUNNY   71  66  85 CALM      30.07F
FREMONT        RAIN      65  65 100 E3        30.06S
HOLLAND        CLOUDY    68  64  87 E5        30.06R
GRAND RAPIDS   CLOUDY    67  65  93 E8        30.06F
IONIA          CLOUDY    66  64  91 E5        30.07S
KALAMAZOO      CLOUDY    70  63  78 S3        30.07S
LUDINGTON      CLOUDY    71  62  72 S7        30.06S
MARSHALL       CLOUDY    70  65  85 SE5       30.06F
MOUNT PLEASANT CLOUDY    69  63  83 SE3       30.08S
MUSKEGON       LGT RAIN  66  62  87 E5        30.06S FOG
SOUTH HAVEN    CLOUDY    69  65  88 SE6       30.04F
$$
MIZ016>042-292200-
NORTHERN LOWER MICHIGAN

CITY           SKY/WX    TMP DP  RH WIND       PRES   REMARKS
ALPENA         FAIR      72  59  63 S9        30.07F
BEAVER ISLAND  PTSUNNY   69  62  78 SW6       30.05F
BELLAIRE       CLOUDY    72  58  62 CALM      30.05S
CADILLAC       FAIR      70  59  68 S9        30.07F
CHARLEVOIX     FAIR      73  60  64 S6        30.08S
FRANKFORT      FAIR      72  63  75 W7        30.05S
GAYLORD        CLOUDY    71  57  61 S9        30.07F
GRAYLING       PTSUNNY   70  58  66 S7        30.08F
HARBOR SPRINGS CLOUDY    71  61  71 SW3       30.06S
HOUGHTON LAKE  CLOUDY    69  60  73 S7        30.09S
MANISTEE       CLOUDY    70  59  68 CALM      30.06S
OSCODA         CLOUDY    69  60  74 S6        30.08F
PELLSTON       CLOUDY    72  60  66 SW6       30.05F
ROGERS CITY    LGT RAIN  66  61  84 NE3       30.07S
TRAVERSE CITY  CLOUDY    73  60  63 VRB5      30.04S
$$
MIZ007>008-015-292200-
EASTERN UPPER MICHIGAN

CITY           SKY/WX    TMP DP  RH WIND       PRES   REMARKS
KINROSS        CLOUDY    70  61  73 SW7       30.04S
MACKINAC ISLAN CLOUDY    68  57  67 W12       30.05S
NEWBERRY       CLOUDY    71  61  71 S14G20    30.02S
S. S. MARIE    CLOUDY    69  61  75 SE3       30.02F
MUNISING         N/A     69  59  70 N8        30.00S
$$
MIZ004>006-011>014-085-292200-
CENTRAL UPPER MICHIGAN

CITY           SKY/WX    TMP DP  RH WIND       PRES   REMARKS
MANISTIQUE     PTSUNNY   67  60  80 S12       30.03S
ESCANABA       FAIR      70  61  73 S14       30.02F
MENOMINEE      PTSUNNY   70  61  73 E3        30.03F
SAWYER-GWINN   MOSUNNY   77  57  50 W7        30.01F
$$
MIZ001>003-009>011-084-292200-
WESTERN UPPER MICHIGAN

CITY           SKY/WX    TMP DP  RH WIND       PRES   REMARKS
IRON MOUNTAIN  FAIR      74  60  61 SE8       30.01F
HOUGHTON       FAIR      74  57  55 W15       29.99F
COPPER HARBOR    N/A     70  59  68 N18       29.97F
IRONWOOD       PTSUNNY   73  63  68 SW8       29.99F
$$

ABBREVIATIONS USED IN REMARKS
   TC - TEMPERATURE IN CELSIUS
  WCI - WIND CHILL INDEX
   HX - HEAT INDEX
  VSB - VISIBILITY




USA.gov is the U.S. government's official web portal to all federal, state and local government web resources and services.